Time,TemperatureF,DewpointF,PressureIn,WindDirection,WindDirectionDegrees,WindSpeedMPH,WindSpeedGustMPH,Humidity,HourlyPrecipIn,Conditions,Clouds,dailyrainin,SolarRadiationWatts/m^2,SoftwareType,DateUTC
2013-02-25 00:00:00,39.6,32.3,29.87,ESE,102,0.0,0.0,75,0.00,RA,,0.00,0.0,WeatherDisplay:10.37,2013-02-25 06:00:00,
2013-02-25 00:05:00,39.2,31.9,29.87,ESE,102,0.0,0.0,75,0.00,RA,,0.00,0.0,WeatherDisplay:10.37,2013-02-25 06:05:00,
2013-02-25 00:10:00,38.6,31.7,29.87,ESE,102,0.0,0.0,76,0.00,CLR,,0.00,0.0,WeatherDisplay:10.37,2013-02-25 06:10:00,
2013-02-25 00:15:00,38.2,31.6,29.86,ESE,102,0.0,0.0,77,0.00,CLR,,0.00,0.0,WeatherDisplay:10.37,2013-02-25 06:15:00,
2013-02-25 00:20:00,37.7,31.5,29.86,ESE,102,0.0,0.0,78,0.00,CLR,,0.00,0.0,WeatherDisplay:10.37,2013-02-25 06:20:00,
2013-02-25 00:25:00,37.2,31.3,29.86,ESE,102,0.0,0.0,79,0.00,CLR,,0.00,0.0,WeatherDisplay:10.37,2013-02-25 06:25:00,
2013-02-25 00:30:00,36.9,31.3,29.86,ESE,102,0.0,0.0,80,0.00,CLR,,0.00,0.0,WeatherDisplay:10.37,2013-02-25 06:30:00,
2013-02-25 00:35:00,36.9,31.3,29.86,ESE,102,0.0,0.0,80,0.00,CLR,,0.00,0.0,WeatherDisplay:10.37,2013-02-25 06:35:00,
2013-02-25 00:40:00,36.2,30.9,29.86,ESE,102,0.7,1.1,81,0.00,CLR,,0.00,0.0,WeatherDisplay:10.37,2013-02-25 06:40:00,
2013-02-25 00:45:00,35.8,30.5,29.86,ESE,102,0.0,0.0,81,0.00,CLR,,0.00,0.0,WeatherDisplay:10.37,2013-02-25 06:45:00,
2013-02-25 00:50:00,35.4,30.1,29.86,ESE,102,0.0,0.0,81,0.00,CLR,,0.00,0.0,WeatherDisplay:10.37,2013-02-25 06:50:00,
2013-02-25 00:55:00,34.8,30.2,29.86,ESE,102,0.0,0.0,83,0.00,CLR,,0.00,0.0,WeatherDisplay:10.37,2013-02-25 06:55:00,
2013-02-25 01:00:00,34.9,30.3,29.86,ESE,102,0.0,0.0,83,0.00,CLR,,0.00,0.0,WeatherDisplay:10.37,2013-02-25 07:00:00,
2013-02-25 01:06:00,34.4,30.1,29.86,ESE,102,0.0,0.0,84,0.00,CLR,,0.00,0.0,WeatherDisplay:10.37,2013-02-25 07:06:00,
2013-02-25 01:11:00,34.3,30.3,29.85,ESE,102,0.0,0.0,85,0.00,CLR,,0.00,0.0,WeatherDisplay:10.37,2013-02-25 07:11:00,
2013-02-25 01:16:00,34.4,30.6,29.85,ESE,102,0.0,0.0,86,0.00,CLR,,0.00,0.0,WeatherDisplay:10.37,2013-02-25 07:16:00,
2013-02-25 01:21:00,34.4,30.4,29.85,ESE,102,0.0,0.0,85,0.00,CLR,,0.00,0.0,WeatherDisplay:10.37,2013-02-25 07:21:00,
2013-02-25 01:26:00,34.0,30.0,29.85,ESE,102,0.0,0.0,85,0.00,CLR,,0.00,0.0,WeatherDisplay:10.37,2013-02-25 07:26:00,
2013-02-25 01:31:00,33.8,30.1,29.85,ESE,102,0.0,0.0,86,0.00,CLR,,0.00,0.0,WeatherDisplay:10.37,2013-02-25 07:31:00,
2013-02-25 01:36:00,33.6,29.9,29.86,ESE,102,1.6,2.3,86,0.00,CLR,,0.00,0.0,WeatherDisplay:10.37,2013-02-25 07:36:00,
2013-02-25 01:41:00,32.8,29.1,29.86,ESE,102,0.0,0.0,86,0.00,CLR,,0.00,0.0,WeatherDisplay:10.37,2013-02-25 07:41:00,
2013-02-25 01:46:00,32.5,28.8,29.86,ESE,102,0.0,0.0,86,0.00,CLR,,0.00,0.0,WeatherDisplay:10.37,2013-02-25 07:46:00,
2013-02-25 01:51:00,32.2,28.8,29.86,ESE,102,0.0,0.0,87,0.00,CLR,,0.00,0.0,WeatherDisplay:10.37,2013-02-25 07:51:00,
2013-02-25 01:56:00,32.4,29.0,29.86,North,355,1.7,2.3,87,0.00,CLR,,0.00,0.0,WeatherDisplay:10.37,2013-02-25 07:56:00,
2013-02-25 02:01:00,33.0,29.8,29.86,North,355,0.0,0.0,88,0.00,BKN,,0.00,0.0,WeatherDisplay:10.37,2013-02-25 08:01:00,
2013-02-25 02:06:00,33.8,30.1,29.86,North,355,0.0,0.0,86,0.00,BKN,,0.00,0.0,WeatherDisplay:10.37,2013-02-25 08:06:00,
2013-02-25 02:11:00,33.4,29.4,29.86,North,355,0.0,0.0,85,0.00,BKN,,0.00,0.0,WeatherDisplay:10.37,2013-02-25 08:11:00,
2013-02-25 02:16:00,33.0,29.3,29.86,NNW,346,0.0,0.0,86,0.00,BKN,,0.00,0.0,WeatherDisplay:10.37,2013-02-25 08:16:00,
2013-02-25 02:21:00,32.8,29.1,29.86,NNW,338,0.0,0.0,86,0.00,BKN,,0.00,0.0,WeatherDisplay:10.37,2013-02-25 08:21:00,
2013-02-25 02:26:00,33.1,29.7,29.86,NNW,338,0.0,0.0,87,0.00,BKN,,0.00,0.0,WeatherDisplay:10.37,2013-02-25 08:26:00,
2013-02-25 02:31:00,32.6,28.9,29.86,NNW,338,0.0,0.0,86,0.00,BKN,,0.00,0.0,WeatherDisplay:10.37,2013-02-25 08:31:00,
2013-02-25 02:36:00,32.3,28.9,29.86,NNW,338,0.0,0.0,87,0.00,BKN,,0.00,0.0,WeatherDisplay:10.37,2013-02-25 08:36:00,
2013-02-25 02:41:00,32.4,29.2,29.86,NNW,338,0.0,0.0,88,0.00,BKN,,0.00,0.0,WeatherDisplay:10.37,2013-02-25 08:41:00,
2013-02-25 02:46:00,32.7,29.5,29.85,NNW,338,0.0,0.0,88,0.00,BKN,,0.00,0.0,WeatherDisplay:10.37,2013-02-25 08:46:00,
2013-02-25 02:51:00,32.6,29.2,29.85,NNW,338,0.0,0.0,87,0.00,BKN,,0.00,0.0,WeatherDisplay:10.37,2013-02-25 08:51:00,
2013-02-25 02:56:00,32.6,29.4,29.84,NNW,338,0.0,0.0,88,0.00,BKN,,0.00,0.0,WeatherDisplay:10.37,2013-02-25 08:56:00,
2013-02-25 03:01:00,32.4,29.0,29.83,NE,46,0.0,0.0,87,0.00,BKN,,0.00,0.0,WeatherDisplay:10.37,2013-02-25 09:01:00,
2013-02-25 03:06:00,32.3,29.1,29.82,NE,46,0.0,0.0,88,0.00,BKN,,0.00,0.0,WeatherDisplay:10.37,2013-02-25 09:06:00,
2013-02-25 03:11:00,32.1,28.9,29.81,NE,46,0.0,0.0,88,0.00,BKN,,0.00,0.0,WeatherDisplay:10.37,2013-02-25 09:11:00,
2013-02-25 03:16:00,32.1,28.9,29.81,NE,46,0.0,0.0,88,0.00,BKN,,0.00,0.0,WeatherDisplay:10.37,2013-02-25 09:16:00,
2013-02-25 03:21:00,32.1,28.9,29.81,NE,46,0.0,0.0,88,0.00,BKN,,0.00,0.0,WeatherDisplay:10.37,2013-02-25 09:21:00,
2013-02-25 03:26:00,32.0,28.8,29.80,NE,46,0.0,0.0,88,0.00,BKN,,0.00,0.0,WeatherDisplay:10.37,2013-02-25 09:26:00,
2013-02-25 03:31:00,31.9,28.8,29.80,NE,46,0.0,0.0,88,0.00,BKN,,0.00,0.0,WeatherDisplay:10.37,2013-02-25 09:31:00,
2013-02-25 03:36:00,31.7,28.6,29.79,NE,46,0.0,0.0,88,0.00,BKN,,0.00,0.0,WeatherDisplay:10.37,2013-02-25 09:36:00,
2013-02-25 03:41:00,31.7,28.6,29.79,NE,46,0.0,0.0,88,0.00,BKN,,0.00,0.0,WeatherDisplay:10.37,2013-02-25 09:41:00,
2013-02-25 03:46:00,31.8,28.7,29.80,NE,46,0.0,0.0,88,0.00,BKN,,0.00,0.0,WeatherDisplay:10.37,2013-02-25 09:46:00,
2013-02-25 03:51:00,31.9,29.0,29.80,NE,46,0.0,0.0,89,0.00,BKN,,0.00,0.0,WeatherDisplay:10.37,2013-02-25 09:51:00,
2013-02-25 03:56:00,31.8,28.9,29.80,North,355,0.5,2.3,89,0.00,BKN,,0.00,0.0,WeatherDisplay:10.37,2013-02-25 09:56:00,
2013-02-25 04:01:00,31.8,28.9,29.80,North,355,0.0,0.0,89,0.00,OVC,,0.00,0.0,WeatherDisplay:10.37,2013-02-25 10:01:00,
2013-02-25 04:06:00,32.0,29.1,29.80,North,355,0.0,0.0,89,0.00,OVC,,0.00,0.0,WeatherDisplay:10.37,2013-02-25 10:06:00,
2013-02-25 04:11:00,32.3,29.4,29.80,North,355,0.0,0.0,89,0.00,OVC,,0.00,0.0,WeatherDisplay:10.37,2013-02-25 10:11:00,
2013-02-25 04:16:00,32.1,29.2,29.80,North,355,0.0,0.0,89,0.00,OVC,,0.00,0.0,WeatherDisplay:10.37,2013-02-25 10:16:00,
2013-02-25 04:21:00,32.2,29.3,29.80,North,355,0.0,0.0,89,0.00,OVC,,0.00,0.0,WeatherDisplay:10.37,2013-02-25 10:21:00,
2013-02-25 04:26:00,32.2,29.3,29.80,North,355,0.0,0.0,89,0.00,OVC,,0.00,0.0,WeatherDisplay:10.37,2013-02-25 10:26:00,
2013-02-25 04:31:00,32.3,29.4,29.80,North,355,1.0,2.3,89,0.00,OVC,,0.00,0.0,WeatherDisplay:10.37,2013-02-25 10:31:00,
2013-02-25 04:36:00,32.5,29.9,29.80,North,355,0.0,0.0,90,0.00,OVC,,0.00,0.0,WeatherDisplay:10.37,2013-02-25 10:36:00,
2013-02-25 04:41:00,32.7,29.8,29.79,North,355,0.0,0.0,89,0.00,OVC,,0.00,0.0,WeatherDisplay:10.37,2013-02-25 10:41:00,
2013-02-25 04:46:00,32.8,29.9,29.80,North,355,0.0,0.0,89,0.00,OVC,,0.00,0.0,WeatherDisplay:10.37,2013-02-25 10:46:00,
2013-02-25 04:51:00,33.2,30.3,29.80,North,355,0.0,0.0,89,0.00,OVC,,0.00,0.0,WeatherDisplay:10.37,2013-02-25 10:51:00,
2013-02-25 04:56:00,33.3,30.1,29.80,North,355,0.0,0.0,88,0.00,OVC,,0.00,0.0,WeatherDisplay:10.37,2013-02-25 10:56:00,
2013-02-25 05:01:00,33.6,30.4,29.80,North,355,0.0,0.0,88,0.00,OVC,,0.00,0.0,WeatherDisplay:10.37,2013-02-25 11:01:00,
2013-02-25 05:06:00,33.9,31.0,29.80,North,355,0.0,0.0,89,0.00,OVC,,0.00,0.0,WeatherDisplay:10.37,2013-02-25 11:06:00,
2013-02-25 05:11:00,34.0,31.1,29.81,NW,315,0.0,0.0,89,0.00,OVC,,0.00,0.0,WeatherDisplay:10.37,2013-02-25 11:11:00,
2013-02-25 05:16:00,34.0,30.8,29.81,NW,315,0.0,0.0,88,0.00,OVC,,0.00,0.0,WeatherDisplay:10.37,2013-02-25 11:16:00,
2013-02-25 05:21:00,34.0,30.8,29.81,NW,315,0.0,0.0,88,0.00,OVC,,0.00,0.0,WeatherDisplay:10.37,2013-02-25 11:21:00,
2013-02-25 05:26:00,34.4,31.5,29.81,NW,315,0.0,0.0,89,0.00,OVC,,0.00,0.0,WeatherDisplay:10.37,2013-02-25 11:26:00,
2013-02-25 05:31:00,34.9,32.0,29.80,NW,315,0.0,0.0,89,0.00,OVC,,0.00,0.0,WeatherDisplay:10.37,2013-02-25 11:31:00,
2013-02-25 05:36:00,35.3,32.1,29.80,NW,315,0.0,0.0,88,0.00,OVC,,0.00,0.0,WeatherDisplay:10.37,2013-02-25 11:36:00,
2013-02-25 05:41:00,35.5,32.3,29.79,NW,315,1.1,2.3,88,0.00,OVC,,0.00,0.0,WeatherDisplay:10.37,2013-02-25 11:41:00,
2013-02-25 05:46:00,35.5,32.3,29.77,North,5,2.7,3.5,88,0.00,OVC,,0.00,0.0,WeatherDisplay:10.37,2013-02-25 11:46:00,
2013-02-25 05:51:00,35.6,32.1,29.77,North,5,1.8,2.6,87,0.00,OVC,,0.00,0.0,WeatherDisplay:10.37,2013-02-25 11:51:00,
2013-02-25 05:56:00,35.7,32.2,29.77,North,5,0.0,0.0,87,0.00,OVC,,0.00,0.0,WeatherDisplay:10.37,2013-02-25 11:56:00,
2013-02-25 06:01:00,35.5,32.3,29.77,South,171,0.2,2.6,88,0.00,OVC,,0.00,0.0,WeatherDisplay:10.37,2013-02-25 12:01:00,
2013-02-25 06:06:00,35.7,32.2,29.77,SSW,192,3.4,5.8,87,0.00,OVC,,0.00,0.0,WeatherDisplay:10.37,2013-02-25 12:06:00,
2013-02-25 06:11:00,35.7,32.2,29.78,South,190,0.0,0.0,87,0.00,OVC,,0.00,0.0,WeatherDisplay:10.37,2013-02-25 12:11:00,
2013-02-25 06:16:00,36.1,32.0,29.78,South,190,0.0,0.0,85,0.00,OVC,,0.00,0.0,WeatherDisplay:10.37,2013-02-25 12:16:00,
2013-02-25 06:21:00,36.3,31.9,29.78,South,190,0.0,0.0,84,0.00,OVC,,0.00,0.0,WeatherDisplay:10.37,2013-02-25 12:21:00,
2013-02-25 06:26:00,36.5,32.1,29.78,South,190,0.0,0.0,84,0.00,OVC,,0.00,0.0,WeatherDisplay:10.37,2013-02-25 12:26:00,
2013-02-25 06:31:00,36.5,32.4,29.77,South,190,0.0,0.0,85,0.00,OVC,,0.00,0.0,WeatherDisplay:10.37,2013-02-25 12:31:00,
2013-02-25 06:36:00,36.7,32.3,29.77,South,190,0.0,0.0,84,0.00,OVC,,0.00,0.0,WeatherDisplay:10.37,2013-02-25 12:36:00,
2013-02-25 06:41:00,36.6,32.5,29.78,South,190,0.0,0.0,85,0.00,OVC,,0.00,0.0,WeatherDisplay:10.37,2013-02-25 12:41:00,
2013-02-25 06:47:00,36.6,32.8,29.78,South,190,0.0,0.0,86,0.00,OVC,,0.00,0.0,WeatherDisplay:10.37,2013-02-25 12:47:00,
2013-02-25 06:52:00,36.7,33.2,29.78,South,190,0.0,0.0,87,0.00,OVC,,0.00,0.0,WeatherDisplay:10.37,2013-02-25 12:52:00,
2013-02-25 06:57:00,37.0,33.5,29.78,South,190,0.0,0.0,87,0.00,OVC,,0.00,5.0,WeatherDisplay:10.37,2013-02-25 12:57:00,
2013-02-25 07:02:00,37.2,33.7,29.78,South,190,0.0,0.0,87,0.00,SCT,,0.00,9.0,WeatherDisplay:10.37,2013-02-25 13:02:00,
2013-02-25 07:08:00,37.3,33.5,29.77,South,190,0.0,0.0,86,0.00,SCT,,0.00,14.0,WeatherDisplay:10.37,2013-02-25 13:08:00,
2013-02-25 07:13:00,37.5,33.4,29.76,South,190,0.0,0.0,85,0.00,SCT,,0.00,26.0,WeatherDisplay:10.37,2013-02-25 13:13:00,
2013-02-25 07:18:00,37.7,33.9,29.76,SE,140,2.0,4.0,86,0.00,SCT,,0.00,26.0,WeatherDisplay:10.37,2013-02-25 13:18:00,
2013-02-25 07:23:00,38.2,33.8,29.76,NE,55,1.0,3.0,84,0.00,SCT,,0.00,25.0,WeatherDisplay:10.37,2013-02-25 13:23:00,
2013-02-25 07:28:00,39.5,34.4,29.76,SSE,160,1.0,4.0,82,0.00,SCT,,0.00,37.0,WeatherDisplay:10.37,2013-02-25 13:28:00,
2013-02-25 07:33:00,39.7,34.7,29.76,South,174,0.0,0.0,82,0.00,SCT,,0.00,44.0,WeatherDisplay:10.37,2013-02-25 13:33:00,
2013-02-25 07:38:00,39.8,34.8,29.75,South,174,0.0,0.0,82,0.00,SCT,,0.00,62.0,WeatherDisplay:10.37,2013-02-25 13:38:00,
2013-02-25 07:43:00,40.6,35.2,29.75,ENE,73,0.9,2.6,81,0.00,SCT,,0.00,109.0,WeatherDisplay:10.37,2013-02-25 13:43:00,
2013-02-25 07:48:00,42.7,36.0,29.75,ENE,71,5.3,8.1,77,0.00,SCT,,0.00,144.0,WeatherDisplay:10.37,2013-02-25 13:48:00,
2013-02-25 07:53:00,44.3,35.1,29.74,ENE,62,5.2,8.1,70,0.00,SCT,,0.00,93.0,WeatherDisplay:10.37,2013-02-25 13:53:00,
2013-02-25 07:58:00,45.2,34.9,29.75,ESE,113,1.5,2.3,67,0.00,SCT,,0.00,74.0,WeatherDisplay:10.37,2013-02-25 13:58:00,
2013-02-25 08:03:00,45.4,34.7,29.75,SE,131,2.6,3.5,66,0.00,SCT,,0.00,67.0,WeatherDisplay:10.37,2013-02-25 14:03:00,
2013-02-25 08:08:00,45.7,34.2,29.75,SE,127,3.7,5.8,64,0.00,SCT,,0.00,72.0,WeatherDisplay:10.37,2013-02-25 14:08:00,
2013-02-25 08:14:00,46.0,33.7,29.74,East,83,5.1,8.1,62,0.00,SCT,,0.00,79.0,WeatherDisplay:10.37,2013-02-25 14:14:00,
2013-02-25 08:19:00,46.2,33.9,29.74,ESE,108,4.3,6.9,62,0.00,SCT,,0.00,86.0,WeatherDisplay:10.37,2013-02-25 14:19:00,
2013-02-25 08:24:00,46.4,33.7,29.74,ESE,105,5.6,6.9,61,0.00,SCT,,0.00,97.0,WeatherDisplay:10.37,2013-02-25 14:24:00,
2013-02-25 08:29:00,46.6,33.4,29.73,East,99,5.5,9.2,60,0.00,SCT,,0.00,178.0,WeatherDisplay:10.37,2013-02-25 14:29:00,
2013-02-25 08:34:00,47.6,34.0,29.73,ESE,113,4.0,6.9,59,0.00,SCT,,0.00,348.0,WeatherDisplay:10.37,2013-02-25 14:34:00,
2013-02-25 08:39:00,48.9,34.8,29.73,SE,128,3.3,5.3,58,0.00,SCT,,0.00,403.0,WeatherDisplay:10.37,2013-02-25 14:39:00,
2013-02-25 08:44:00,49.1,34.5,29.74,East,89,6.6,8.1,57,0.00,SCT,,0.00,239.0,WeatherDisplay:10.37,2013-02-25 14:44:00,
2013-02-25 08:49:00,49.7,34.2,29.73,SE,125,3.8,6.6,55,0.00,SCT,,0.00,461.0,WeatherDisplay:10.37,2013-02-25 14:49:00,
2013-02-25 08:54:00,50.1,33.1,29.72,NNE,22,5.9,9.2,52,0.00,SCT,,0.00,330.0,WeatherDisplay:10.37,2013-02-25 14:54:00,
2013-02-25 08:59:00,51.1,35.5,29.72,ENE,74,6.1,9.2,55,0.00,SCT,,0.00,411.0,WeatherDisplay:10.37,2013-02-25 14:59:00,
2013-02-25 09:04:00,52.1,33.0,29.72,ESE,123,16.6,18.4,48,0.00,BKN,,0.00,334.0,WeatherDisplay:10.37,2013-02-25 15:04:00,
2013-02-25 09:09:00,52.0,33.9,29.72,East,101,10.4,16.1,50,0.00,BKN,,0.00,218.0,WeatherDisplay:10.37,2013-02-25 15:09:00,
2013-02-25 09:14:00,51.8,32.7,29.71,East,84,16.0,23.0,48,0.00,BKN,,0.00,146.0,WeatherDisplay:10.37,2013-02-25 15:14:00,
2013-02-25 09:19:00,51.6,32.5,29.73,East,94,10.4,15.0,48,0.00,BKN,,0.00,148.0,WeatherDisplay:10.37,2013-02-25 15:19:00,
2013-02-25 09:24:00,51.6,32.5,29.73,East,82,7.8,12.7,48,0.00,BKN,,0.00,137.0,WeatherDisplay:10.37,2013-02-25 15:24:00,
2013-02-25 09:29:00,51.7,32.1,29.72,ESE,119,13.0,15.0,47,0.00,BKN,,0.00,90.0,WeatherDisplay:10.37,2013-02-25 15:29:00,
2013-02-25 09:34:00,51.5,31.4,29.72,ENE,67,11.6,18.5,46,0.00,BKN,,0.00,88.0,WeatherDisplay:10.37,2013-02-25 15:34:00,
2013-02-25 09:39:00,51.5,31.4,29.71,East,96,9.4,15.0,46,0.00,BKN,,0.00,104.0,WeatherDisplay:10.37,2013-02-25 15:39:00,
2013-02-25 09:44:00,51.5,31.4,29.71,East,96,10.9,20.7,46,0.00,BKN,,0.00,84.0,WeatherDisplay:10.37,2013-02-25 15:44:00,
2013-02-25 09:49:00,51.4,30.7,29.70,East,93,15.0,19.6,45,0.00,BKN,,0.00,65.0,WeatherDisplay:10.37,2013-02-25 15:49:00,
2013-02-25 09:54:00,51.3,31.2,29.68,East,82,11.3,24.2,46,0.00,BKN,,0.00,74.0,WeatherDisplay:10.37,2013-02-25 15:54:00,
2013-02-25 09:59:00,51.2,31.1,29.69,East,92,14.8,19.6,46,0.00,BKN,,0.00,91.0,WeatherDisplay:10.37,2013-02-25 15:59:00,
2013-02-25 10:04:00,51.1,31.0,29.68,ENE,73,7.4,11.5,46,0.00,BKN,,0.00,98.0,WeatherDisplay:10.37,2013-02-25 16:04:00,
2013-02-25 10:09:00,51.2,31.1,29.66,East,84,11.3,15.0,46,0.00,BKN,,0.00,178.0,WeatherDisplay:10.37,2013-02-25 16:09:00,
2013-02-25 10:14:00,51.4,32.3,29.67,SE,128,9.2,17.2,48,0.00,BKN,,0.00,229.0,WeatherDisplay:10.37,2013-02-25 16:14:00,
2013-02-25 10:19:00,51.8,31.7,29.66,ENE,76,12.7,18.4,46,0.00,OVC,,0.00,262.0,WeatherDisplay:10.37,2013-02-25 16:19:00,
2013-02-25 10:24:00,51.9,31.2,29.66,East,97,20.3,25.3,45,0.00,OVC,,0.00,269.0,WeatherDisplay:10.37,2013-02-25 16:24:00,
2013-02-25 10:29:00,51.9,31.2,29.65,East,84,11.8,21.1,45,0.00,OVC,,0.00,202.0,WeatherDisplay:10.37,2013-02-25 16:29:00,
2013-02-25 10:34:00,51.8,31.7,29.66,NE,50,19.8,23.0,46,0.00,-RA,,0.00,153.0,WeatherDisplay:10.37,2013-02-25 16:34:00,
2013-02-25 10:39:00,51.6,31.5,29.66,ESE,123,10.4,20.7,46,0.00,-RA,,0.00,121.0,WeatherDisplay:10.37,2013-02-25 16:39:00,
2013-02-25 10:44:00,51.5,31.9,29.66,East,96,15.1,16.1,47,0.00,-RA,,0.00,207.0,WeatherDisplay:10.37,2013-02-25 16:44:00,
2013-02-25 10:49:00,51.9,32.3,29.65,ENE,76,12.9,25.3,47,0.00,-RA,,0.00,338.0,WeatherDisplay:10.37,2013-02-25 16:49:00,
2013-02-25 10:54:00,52.4,32.7,29.64,East,88,17.9,24.2,47,0.00,-RA,,0.00,353.0,WeatherDisplay:10.37,2013-02-25 16:54:00,
2013-02-25 10:59:00,52.8,33.1,29.64,SE,135,18.6,18.6,47,0.00,-RA,,0.00,353.0,WeatherDisplay:10.37,2013-02-25 16:59:00,
2013-02-25 11:04:00,52.9,33.2,29.64,ESE,102,16.9,23.0,47,0.00,OVC,,0.00,309.0,WeatherDisplay:10.37,2013-02-25 17:04:00,
2013-02-25 11:09:00,52.9,33.7,29.64,East,91,13.2,17.3,48,0.00,OVC,,0.00,285.0,WeatherDisplay:10.37,2013-02-25 17:09:00,
2013-02-25 11:14:00,53.0,33.8,29.62,ENE,78,14.3,20.7,48,0.00,OVC,,0.00,236.0,WeatherDisplay:10.37,2013-02-25 17:14:00,
2013-02-25 11:19:00,53.0,33.8,29.63,East,91,12.7,19.6,48,0.00,OVC,,0.00,185.0,WeatherDisplay:10.37,2013-02-25 17:19:00,
2013-02-25 11:24:00,53.1,34.9,29.63,ESE,103,12.3,13.2,50,0.00,OVC,,0.00,214.0,WeatherDisplay:10.37,2013-02-25 17:24:00,
2013-02-25 11:29:00,53.3,35.1,29.63,ESE,111,15.3,27.6,50,0.00,OVC,,0.00,285.0,WeatherDisplay:10.37,2013-02-25 17:29:00,
2013-02-25 11:34:00,53.7,35.5,29.63,NE,46,13.8,15.0,50,0.00,OVC,,0.00,279.0,WeatherDisplay:10.37,2013-02-25 17:34:00,
2013-02-25 11:39:00,53.7,36.5,29.62,East,95,15.0,18.5,52,0.00,OVC,,0.00,132.0,WeatherDisplay:10.37,2013-02-25 17:39:00,
2013-02-25 11:44:00,53.3,36.1,29.61,SE,143,14.6,19.6,52,0.00,OVC,,0.00,149.0,WeatherDisplay:10.37,2013-02-25 17:44:00,
2013-02-25 11:49:00,53.2,36.0,29.62,ESE,117,14.2,14.2,52,0.00,OVC,,0.00,97.0,WeatherDisplay:10.37,2013-02-25 17:49:00,
2013-02-25 11:54:00,53.1,36.4,29.62,ESE,117,11.1,18.4,53,0.00,OVC,,0.00,69.0,WeatherDisplay:10.37,2013-02-25 17:54:00,
2013-02-25 11:59:00,53.0,36.3,29.61,ESE,106,15.6,19.6,53,0.00,OVC,,0.00,84.0,WeatherDisplay:10.37,2013-02-25 17:59:00,
2013-02-25 12:04:00,53.0,36.8,29.61,East,87,19.2,23.0,54,0.00,OVC,,0.00,79.0,WeatherDisplay:10.37,2013-02-25 18:04:00,
2013-02-25 12:09:00,52.9,37.2,29.59,East,93,21.7,28.8,55,0.00,OVC,,0.00,60.0,WeatherDisplay:10.37,2013-02-25 18:09:00,
2013-02-25 12:14:00,52.8,37.5,29.56,ESE,109,16.7,36.8,56,0.00,OVC,,0.00,74.0,WeatherDisplay:10.37,2013-02-25 18:14:00,
2013-02-25 12:19:00,52.6,37.8,29.57,ESE,116,16.7,32.2,57,0.00,OVC,,0.00,69.0,WeatherDisplay:10.37,2013-02-25 18:19:00,
2013-02-25 12:24:00,52.6,37.8,29.57,East,90,24.0,27.7,57,0.00,OVC,,0.00,65.0,WeatherDisplay:10.37,2013-02-25 18:24:00,
2013-02-25 12:29:00,52.4,38.0,29.56,SE,129,22.4,22.4,58,0.00,OVC,,0.00,39.0,WeatherDisplay:10.37,2013-02-25 18:29:00,
2013-02-25 12:34:00,52.2,37.9,29.56,East,88,19.2,22.4,58,0.00,OVC,,0.00,37.0,WeatherDisplay:10.37,2013-02-25 18:34:00,
2013-02-25 12:39:00,51.8,38.8,29.53,ESE,116,28.4,32.2,61,0.00,OVC,,0.00,33.0,WeatherDisplay:10.37,2013-02-25 18:39:00,
2013-02-25 12:44:00,51.2,38.6,29.54,SE,142,19.3,19.6,62,0.00,OVC,,0.00,21.0,WeatherDisplay:10.37,2013-02-25 18:44:00,
2013-02-25 12:49:00,50.9,38.7,29.55,East,83,17.7,20.7,63,0.00,OVC,,0.00,18.0,WeatherDisplay:10.37,2013-02-25 18:49:00,
2013-02-25 12:54:00,50.8,38.7,29.54,ENE,69,18.2,20.7,63,0.00,OVC,,0.00,16.0,WeatherDisplay:10.37,2013-02-25 18:54:00,
2013-02-25 12:59:00,50.6,38.5,29.52,ENE,74,12.7,19.6,63,0.00,OVC,,0.00,21.0,WeatherDisplay:10.37,2013-02-25 18:59:00,
2013-02-25 13:04:00,50.5,38.4,29.51,East,93,17.3,18.4,63,0.00, +RA,,0.00,21.0,WeatherDisplay:10.37,2013-02-25 19:04:00,
2013-02-25 13:09:00,50.4,38.7,29.50,NE,40,16.4,24.2,64,0.00, +RA,,0.00,19.0,WeatherDisplay:10.37,2013-02-25 19:09:00,
2013-02-25 13:14:00,50.3,38.2,29.49,ENE,57,11.9,19.6,63,0.00, +RA,,0.00,14.0,WeatherDisplay:10.37,2013-02-25 19:14:00,
2013-02-25 13:19:00,50.3,38.2,29.48,NE,53,16.2,28.8,63,0.00, +RA,,0.00,11.0,WeatherDisplay:10.37,2013-02-25 19:19:00,
2013-02-25 13:24:00,50.3,37.8,29.48,East,94,19.9,24.2,62,0.00, +RA,,0.00,16.0,WeatherDisplay:10.37,2013-02-25 19:24:00,
2013-02-25 13:29:00,50.3,38.2,29.47,East,99,24.6,29.9,63,0.00, +RA,,0.00,7.0,WeatherDisplay:10.37,2013-02-25 19:29:00,
2013-02-25 13:34:00,50.2,37.7,29.46,ESE,111,18.0,26.5,62,0.00,-RA,,0.00,9.0,WeatherDisplay:10.37,2013-02-25 19:34:00,
2013-02-25 13:39:00,50.2,37.7,29.47,ESE,103,16.3,16.3,62,0.00,-RA,,0.00,0.0,WeatherDisplay:10.37,2013-02-25 19:39:00,
2013-02-25 13:44:00,50.1,37.6,29.50,SE,140,5.8,18.4,62,0.00,-RA,,0.00,0.0,WeatherDisplay:10.37,2013-02-25 19:44:00,
2013-02-25 13:49:00,50.1,38.0,29.52,NE,50,5.1,10.4,63,0.00,-RA,,0.00,0.0,WeatherDisplay:10.37,2013-02-25 19:49:00,
2013-02-25 13:54:00,50.0,38.3,29.52,ENE,69,6.0,6.9,64,0.00,-RA,,0.01,0.0,WeatherDisplay:10.37,2013-02-25 19:54:00,
2013-02-25 13:59:00,48.5,39.5,29.51,ESE,119,3.4,6.9,71,0.07,-RA,,0.07,0.0,WeatherDisplay:10.37,2013-02-25 19:59:00,
2013-02-25 14:04:00,47.9,40.0,29.50,ESE,105,3.3,3.5,74,0.07,-RA,,0.07,0.0,WeatherDisplay:10.37,2013-02-25 20:04:00,
2013-02-25 14:09:00,47.5,41.0,29.48,East,80,6.5,6.9,78,0.08,-RA,,0.09,0.0,WeatherDisplay:10.37,2013-02-25 20:09:00,
2013-02-25 14:14:00,46.6,41.1,29.50,SW,229,12.6,18.5,81,0.10,-RA,,0.10,0.0,WeatherDisplay:10.37,2013-02-25 20:14:00,
2013-02-25 14:19:00,46.5,41.0,29.60,SSW,205,10.5,17.3,81,0.12,RA,,0.13,0.0,WeatherDisplay:10.37,2013-02-25 20:19:00,
2013-02-25 14:24:00,45.9,41.0,29.55,NNE,19,1.7,6.9,83,0.22,RA,,0.25,0.0,WeatherDisplay:10.37,2013-02-25 20:24:00,
2013-02-25 14:29:00,44.9,41.0,29.53,WNW,295,7.4,7.4,86,0.35,RA,,0.35,7.0,WeatherDisplay:10.37,2013-02-25 20:29:00,
2013-02-25 14:34:00,44.1,40.5,29.56,SSW,194,3.7,5.8,87,0.36,RA,,0.37,19.0,WeatherDisplay:10.37,2013-02-25 20:34:00,
2013-02-25 14:39:00,43.9,40.6,29.55,SSE,159,0.0,0.0,88,0.38,RA,,0.38,51.0,WeatherDisplay:10.37,2013-02-25 20:39:00,
2013-02-25 14:44:00,44.0,41.0,29.56,ESE,121,3.9,4.0,89,0.40,RA,,0.40,104.0,WeatherDisplay:10.37,2013-02-25 20:44:00,
2013-02-25 14:49:00,44.2,41.5,29.54,NNE,33,2.8,6.9,90,0.40,RA,,0.41,151.0,WeatherDisplay:10.37,2013-02-25 20:49:00,
2013-02-25 14:54:00,44.8,42.0,29.52,NE,52,3.3,3.3,90,0.41,RA,,0.41,297.0,WeatherDisplay:10.37,2013-02-25 20:54:00,
2013-02-25 14:59:00,45.5,42.7,29.53,ESE,116,7.8,8.1,90,0.34,RA,,0.41,274.0,WeatherDisplay:10.37,2013-02-25 20:59:00,
2013-02-25 15:04:00,45.8,43.0,29.53,ESE,116,3.9,6.9,90,0.34,OVC,,0.41,227.0,WeatherDisplay:10.37,2013-02-25 21:04:00,
2013-02-25 15:09:00,45.8,42.7,29.52,ESE,106,5.1,8.1,89,0.33,OVC,,0.41,116.0,WeatherDisplay:10.37,2013-02-25 21:09:00,
2013-02-25 15:14:00,45.7,42.6,29.52,East,80,4.4,4.4,89,0.31,OVC,,0.41,121.0,WeatherDisplay:10.37,2013-02-25 21:14:00,
2013-02-25 15:19:00,45.7,42.3,29.51,ENE,76,3.0,3.5,88,0.29,OVC,,0.41,139.0,WeatherDisplay:10.37,2013-02-25 21:19:00,
2013-02-25 15:24:00,45.7,42.3,29.50,ENE,60,3.2,5.8,88,0.19,OVC,,0.41,111.0,WeatherDisplay:10.37,2013-02-25 21:24:00,
2013-02-25 15:29:00,45.6,42.3,29.50,NE,49,4.6,5.3,88,0.06,OVC,,0.41,42.0,WeatherDisplay:10.37,2013-02-25 21:29:00,
2013-02-25 15:34:00,45.5,42.2,29.51,ENE,67,1.1,8.1,88,0.05,OVC,,0.41,40.0,WeatherDisplay:10.37,2013-02-25 21:34:00,
2013-02-25 15:39:00,45.4,41.8,29.50,NE,36,4.2,4.2,87,0.03,OVC,,0.41,25.0,WeatherDisplay:10.37,2013-02-25 21:39:00,
2013-02-25 15:44:00,45.3,42.0,29.49,NE,42,3.6,5.8,88,0.01,OVC,,0.41,62.0,WeatherDisplay:10.37,2013-02-25 21:44:00,
2013-02-25 15:49:00,45.4,42.1,29.50,ESE,105,5.3,9.2,88,0.01,OVC,,0.41,39.0,WeatherDisplay:10.37,2013-02-25 21:49:00,
2013-02-25 15:54:00,45.5,42.2,29.51,East,94,7.0,9.2,88,0.00,OVC,,0.41,25.0,WeatherDisplay:10.37,2013-02-25 21:54:00,
2013-02-25 15:59:00,45.5,42.4,29.49,ENE,66,4.2,5.8,89,0.00,OVC,,0.41,54.0,WeatherDisplay:10.37,2013-02-25 21:59:00,
2013-02-25 16:04:00,45.5,42.2,29.49,East,98,6.9,11.5,88,0.00,OVC,,0.41,25.0,WeatherDisplay:10.37,2013-02-25 22:04:00,
2013-02-25 16:09:00,45.5,42.2,29.49,East,97,5.5,11.5,88,0.00,OVC,,0.41,18.0,WeatherDisplay:10.37,2013-02-25 22:09:00,
2013-02-25 16:14:00,45.6,42.3,29.50,ESE,111,5.1,6.9,88,0.00,OVC,,0.41,16.0,WeatherDisplay:10.37,2013-02-25 22:14:00,
2013-02-25 16:19:00,45.5,42.4,29.49,East,100,4.0,6.9,89,0.00,OVC,,0.41,25.0,WeatherDisplay:10.37,2013-02-25 22:19:00,
2013-02-25 16:24:00,45.4,42.3,29.48,East,84,4.6,7.9,89,0.00,OVC,,0.41,28.0,WeatherDisplay:10.37,2013-02-25 22:24:00,
2013-02-25 16:29:00,45.4,42.3,29.48,ENE,67,3.3,8.1,89,0.00,OVC,,0.41,14.0,WeatherDisplay:10.37,2013-02-25 22:29:00,
2013-02-25 16:34:00,45.3,42.2,29.48,ESE,102,6.9,6.9,89,0.01,RA,,0.42,7.0,WeatherDisplay:10.37,2013-02-25 22:34:00,
2013-02-25 16:39:00,45.2,42.2,29.48,East,96,3.9,6.9,89,0.01,RA,,0.42,9.0,WeatherDisplay:10.37,2013-02-25 22:39:00,
2013-02-25 16:44:00,45.2,42.2,29.47,East,81,2.3,3.5,89,0.01,OVC,,0.42,14.0,WeatherDisplay:10.37,2013-02-25 22:44:00,
2013-02-25 16:50:00,45.1,42.1,29.46,ESE,113,2.6,3.5,89,0.01,OVC,,0.42,11.0,WeatherDisplay:10.37,2013-02-25 22:50:00,
2013-02-25 16:55:00,45.0,42.0,29.47,East,101,2.2,2.6,89,0.01,OVC,,0.42,7.0,WeatherDisplay:10.37,2013-02-25 22:55:00,
2013-02-25 17:00:00,45.0,42.2,29.49,SE,138,3.6,5.8,90,0.01,OVC,,0.42,5.0,WeatherDisplay:10.37,2013-02-25 23:00:00,
2013-02-25 17:05:00,44.9,42.1,29.50,East,81,9.6,11.5,90,0.01,OVC,,0.42,16.0,WeatherDisplay:10.37,2013-02-25 23:05:00,
2013-02-25 17:10:00,44.9,42.1,29.49,East,84,6.9,8.1,90,0.05,RA,,0.46,40.0,WeatherDisplay:10.37,2013-02-25 23:10:00,
2013-02-25 17:15:00,44.8,42.0,29.49,East,101,7.1,11.5,90,0.05,RA,,0.46,30.0,WeatherDisplay:10.37,2013-02-25 23:15:00,
2013-02-25 17:20:00,44.7,42.2,29.50,SSE,151,3.8,6.9,91,0.05,RA,,0.46,7.0,WeatherDisplay:10.37,2013-02-25 23:20:00,
2013-02-25 17:25:00,44.7,42.2,29.49,East,86,4.9,9.2,91,0.05,OVC,,0.46,11.0,WeatherDisplay:10.37,2013-02-25 23:25:00,
2013-02-25 17:30:00,44.7,42.2,29.49,ENE,57,2.4,9.2,91,0.05,OVC,,0.46,7.0,WeatherDisplay:10.37,2013-02-25 23:30:00,
2013-02-25 17:35:00,44.7,42.2,29.49,East,98,2.2,3.5,91,0.04,OVC,,0.46,5.0,WeatherDisplay:10.37,2013-02-25 23:35:00,
2013-02-25 17:40:00,44.7,42.2,29.49,East,94,2.7,3.5,91,0.04,OVC,,0.46,0.0,WeatherDisplay:10.37,2013-02-25 23:40:00,
2013-02-25 17:45:00,44.8,42.3,29.49,East,80,2.9,4.0,91,0.04,OVC,,0.46,0.0,WeatherDisplay:10.37,2013-02-25 23:45:00,
2013-02-25 17:50:00,44.8,42.3,29.48,East,82,2.8,4.0,91,0.04,OVC,,0.46,5.0,WeatherDisplay:10.37,2013-02-25 23:50:00,
2013-02-25 17:55:00,44.8,42.3,29.48,NE,55,4.6,8.1,91,0.04,OVC,,0.46,0.0,WeatherDisplay:10.37,2013-02-25 23:55:00,
2013-02-25 18:00:00,44.9,42.4,29.48,East,83,2.6,4.0,91,0.04,OVC,,0.46,0.0,WeatherDisplay:10.37,2013-02-26 00:00:00,
2013-02-25 18:05:00,44.9,42.4,29.48,ENE,76,4.8,9.2,91,0.04,-RA,,0.46,0.0,WeatherDisplay:10.37,2013-02-26 00:05:00,
2013-02-25 18:10:00,45.0,42.2,29.48,ESE,105,4.6,8.1,90,0.00,-RA,,0.46,0.0,WeatherDisplay:10.37,2013-02-26 00:10:00,
2013-02-25 18:15:00,45.0,42.2,29.47,East,87,6.7,9.2,90,0.00,-RA,,0.46,0.0,WeatherDisplay:10.37,2013-02-26 00:15:00,
2013-02-25 18:20:00,45.0,42.2,29.47,East,86,7.0,9.2,90,0.00,OVC,,0.46,0.0,WeatherDisplay:10.37,2013-02-26 00:20:00,
2013-02-25 18:25:00,45.1,42.1,29.47,ESE,111,4.0,5.8,89,0.00,OVC,,0.46,0.0,WeatherDisplay:10.37,2013-02-26 00:25:00,
2013-02-25 18:30:00,45.2,42.2,29.48,ESE,106,2.7,3.5,89,0.00,OVC,,0.46,0.0,WeatherDisplay:10.37,2013-02-26 00:30:00,
2013-02-25 18:35:00,45.2,41.9,29.47,ENE,72,2.2,2.6,88,0.00,OVC,,0.46,0.0,WeatherDisplay:10.37,2013-02-26 00:35:00,
2013-02-25 18:40:00,45.2,41.9,29.47,ESE,109,1.8,4.0,88,0.00,OVC,,0.46,0.0,WeatherDisplay:10.37,2013-02-26 00:40:00,
2013-02-25 18:45:00,45.2,41.9,29.47,East,98,2.7,3.5,88,0.00,OVC,,0.46,0.0,WeatherDisplay:10.37,2013-02-26 00:45:00,
2013-02-25 18:50:00,45.2,41.9,29.48,ESE,113,0.0,0.0,88,0.00,OVC,,0.46,0.0,WeatherDisplay:10.37,2013-02-26 00:50:00,
2013-02-25 18:55:00,45.1,41.8,29.48,SE,130,0.9,1.1,88,0.00,OVC,,0.46,0.0,WeatherDisplay:10.37,2013-02-26 00:55:00,
2013-02-25 19:00:00,45.0,41.7,29.47,East,93,3.1,3.5,88,0.00,OVC,,0.46,0.0,WeatherDisplay:10.37,2013-02-26 01:00:00,
2013-02-25 19:05:00,44.9,41.9,29.47,East,84,4.5,6.9,89,0.00,-RA,,0.46,0.0,WeatherDisplay:10.37,2013-02-26 01:05:00,
2013-02-25 19:10:00,44.8,41.8,29.46,ENE,64,1.5,4.0,89,0.00,-RA,,0.46,0.0,WeatherDisplay:10.37,2013-02-26 01:10:00,
2013-02-25 19:15:00,44.8,41.5,29.46,East,85,4.0,7.9,88,0.00,-RA,,0.46,0.0,WeatherDisplay:10.37,2013-02-26 01:15:00,
2013-02-25 19:20:00,44.9,41.3,29.45,ENE,71,4.3,8.1,87,0.00,-RA,,0.46,0.0,WeatherDisplay:10.37,2013-02-26 01:20:00,
2013-02-25 19:25:00,44.9,41.3,29.45,NE,54,3.7,6.9,87,0.00,-RA,,0.46,0.0,WeatherDisplay:10.37,2013-02-26 01:25:00,
2013-02-25 19:30:00,45.0,41.1,29.44,ENE,71,4.1,4.1,86,0.00,-RA,,0.46,0.0,WeatherDisplay:10.37,2013-02-26 01:30:00,
2013-02-25 19:35:00,45.0,41.1,29.44,NE,53,5.0,8.1,86,0.00,-RA,,0.46,0.0,WeatherDisplay:10.37,2013-02-26 01:35:00,
2013-02-25 19:40:00,45.0,41.1,29.44,ENE,67,7.2,11.5,86,0.00,-RA,,0.46,0.0,WeatherDisplay:10.37,2013-02-26 01:40:00,
2013-02-25 19:45:00,45.1,40.9,29.43,ENE,66,1.9,3.5,85,0.00,-RA,,0.46,0.0,WeatherDisplay:10.37,2013-02-26 01:45:00,
2013-02-25 19:50:00,45.1,40.9,29.43,ESE,111,5.1,6.9,85,0.00,-RA,,0.46,0.0,WeatherDisplay:10.37,2013-02-26 01:50:00,
2013-02-25 19:55:00,45.2,41.0,29.43,East,101,2.5,6.9,85,0.00,-RA,,0.46,0.0,WeatherDisplay:10.37,2013-02-26 01:55:00,
2013-02-25 20:00:00,45.2,40.7,29.43,ESE,106,2.1,2.6,84,0.00,-RA,,0.46,0.0,WeatherDisplay:10.37,2013-02-26 02:00:00,
2013-02-25 20:05:00,45.2,41.0,29.43,ESE,103,1.1,2.3,85,0.00,-RA,,0.46,0.0,WeatherDisplay:10.37,2013-02-26 02:05:00,
2013-02-25 20:10:00,45.2,40.7,29.43,ESE,103,0.1,1.1,84,0.00,-RA,,0.46,0.0,WeatherDisplay:10.37,2013-02-26 02:10:00,
2013-02-25 20:15:00,45.1,40.9,29.43,ESE,103,1.0,1.3,85,0.00,-RA,,0.46,0.0,WeatherDisplay:10.37,2013-02-26 02:15:00,
2013-02-25 20:20:00,44.9,41.0,29.43,ESE,103,1.7,2.3,86,0.00,-RA,,0.46,0.0,WeatherDisplay:10.37,2013-02-26 02:20:00,
2013-02-25 20:25:00,44.7,41.1,29.44,SW,226,3.1,3.5,87,0.00,-RA,,0.46,0.0,WeatherDisplay:10.37,2013-02-26 02:25:00,
2013-02-25 20:30:00,44.4,41.1,29.44,WSW,237,3.7,3.7,88,0.00,-RA,,0.46,0.0,WeatherDisplay:10.37,2013-02-26 02:30:00,
2013-02-25 20:35:00,44.4,41.1,29.45,SW,221,5.9,7.9,88,0.01,-RA,,0.47,0.0,WeatherDisplay:10.37,2013-02-26 02:35:00,
2013-02-25 20:40:00,44.3,41.0,29.45,South,185,4.7,7.9,88,0.02,-RA,,0.48,0.0,WeatherDisplay:10.37,2013-02-26 02:40:00,
2013-02-25 20:45:00,44.1,41.1,29.45,South,184,6.1,9.2,89,0.05,-RA,,0.51,0.0,WeatherDisplay:10.37,2013-02-26 02:45:00,
2013-02-25 20:50:00,44.0,41.3,29.45,SSW,199,3.0,3.5,90,0.06,-RA,,0.52,0.0,WeatherDisplay:10.37,2013-02-26 02:50:00,
2013-02-25 20:55:00,43.9,41.2,29.45,SSW,211,3.5,5.8,90,0.07,-RA,,0.53,0.0,WeatherDisplay:10.37,2013-02-26 02:55:00,
2013-02-25 21:00:00,43.8,41.1,29.44,SSE,155,0.1,1.3,90,0.07,-RA,,0.53,0.0,WeatherDisplay:10.37,2013-02-26 03:00:00,
2013-02-25 21:05:00,43.8,41.3,29.44,ENE,65,2.8,2.8,91,0.07,BKN,,0.53,0.0,WeatherDisplay:10.37,2013-02-26 03:05:00,
2013-02-25 21:10:00,43.7,41.2,29.43,North,5,3.6,5.8,91,0.07,BKN,,0.53,0.0,WeatherDisplay:10.37,2013-02-26 03:10:00,
2013-02-25 21:15:00,43.6,41.1,29.43,East,96,0.0,0.0,91,0.08,RA,,0.54,0.0,WeatherDisplay:10.37,2013-02-26 03:15:00,
2013-02-25 21:20:00,43.6,41.1,29.43,NW,318,1.8,2.6,91,0.08,RA,,0.54,0.0,WeatherDisplay:10.37,2013-02-26 03:20:00,
2013-02-25 21:25:00,43.5,40.8,29.43,North,5,2.6,5.3,90,0.08,BKN,,0.54,0.0,WeatherDisplay:10.37,2013-02-26 03:25:00,
2013-02-25 21:30:00,43.4,40.9,29.43,NE,51,1.8,2.3,91,0.08,BKN,,0.54,0.0,WeatherDisplay:10.37,2013-02-26 03:30:00,
2013-02-25 21:35:00,43.1,40.7,29.43,NE,56,0.6,3.5,91,0.07,BKN,,0.54,0.0,WeatherDisplay:10.37,2013-02-26 03:35:00,
2013-02-25 21:40:00,43.0,40.6,29.42,NE,38,0.9,2.6,91,0.06,BKN,,0.54,0.0,WeatherDisplay:10.37,2013-02-26 03:40:00,
2013-02-25 21:45:00,42.9,40.5,29.42,NNW,346,0.6,2.3,91,0.03,BKN,,0.54,0.0,WeatherDisplay:10.37,2013-02-26 03:45:00,
2013-02-25 21:50:00,42.8,40.4,29.42,North,351,2.6,2.6,91,0.02,OVC,,0.54,0.0,WeatherDisplay:10.37,2013-02-26 03:50:00,
2013-02-25 21:55:00,42.8,40.4,29.42,North,355,0.0,0.0,91,0.01,OVC,,0.54,0.0,WeatherDisplay:10.37,2013-02-26 03:55:00,
2013-02-25 22:00:00,42.6,40.2,29.42,NE,56,0.3,1.1,91,0.01,OVC,,0.54,0.0,WeatherDisplay:10.37,2013-02-26 04:00:00,
2013-02-25 22:05:00,42.3,39.9,29.42,NE,56,0.0,0.0,91,0.01,BKN,,0.54,0.0,WeatherDisplay:10.37,2013-02-26 04:05:00,
2013-02-25 22:10:00,42.2,39.8,29.42,NE,56,0.0,0.0,91,0.01,BKN,,0.54,0.0,WeatherDisplay:10.37,2013-02-26 04:10:00,
2013-02-25 22:15:00,42.1,39.9,29.42,NE,56,0.0,0.0,92,0.00,BKN,,0.54,0.0,WeatherDisplay:10.37,2013-02-26 04:15:00,
2013-02-25 22:20:00,41.7,39.3,29.42,NE,56,0.0,0.0,91,0.00,BKN,,0.54,0.0,WeatherDisplay:10.37,2013-02-26 04:20:00,
2013-02-25 22:25:00,41.1,38.7,29.42,NE,56,2.7,2.7,91,0.00,BKN,,0.54,0.0,WeatherDisplay:10.37,2013-02-26 04:25:00,
2013-02-25 22:30:00,40.5,38.1,29.42,NE,56,2.0,2.3,91,0.00,BKN,,0.54,0.0,WeatherDisplay:10.37,2013-02-26 04:30:00,
2013-02-25 22:35:00,40.3,38.2,29.42,NE,56,0.9,1.3,92,0.00,BKN,,0.54,0.0,WeatherDisplay:10.37,2013-02-26 04:35:00,
2013-02-25 22:40:00,39.8,37.7,29.42,NE,56,0.0,0.0,92,0.00,BKN,,0.54,0.0,WeatherDisplay:10.37,2013-02-26 04:40:00,
2013-02-25 22:45:00,39.7,37.6,29.41,NE,56,0.0,0.0,92,0.00,BKN,,0.54,0.0,WeatherDisplay:10.37,2013-02-26 04:45:00,
2013-02-25 22:50:00,39.8,37.7,29.41,NE,56,0.0,0.0,92,0.00,BKN,,0.54,0.0,WeatherDisplay:10.37,2013-02-26 04:50:00,
2013-02-25 22:55:00,39.8,37.9,29.41,NE,56,0.0,0.0,93,0.00,BKN,,0.54,0.0,WeatherDisplay:10.37,2013-02-26 04:55:00,
2013-02-25 23:00:00,39.7,37.6,29.41,NE,56,0.0,0.0,92,0.00,BKN,,0.54,0.0,WeatherDisplay:10.37,2013-02-26 05:00:00,
2013-02-25 23:05:00,39.6,37.7,29.41,NE,56,0.0,0.0,93,0.00,BKN,,0.54,0.0,WeatherDisplay:10.37,2013-02-26 05:05:00,
2013-02-25 23:10:00,39.3,37.4,29.41,NE,56,0.0,0.0,93,0.00,BKN,,0.54,0.0,WeatherDisplay:10.37,2013-02-26 05:10:00,
2013-02-25 23:15:00,38.7,36.6,29.41,NE,56,0.6,2.3,92,0.00,BKN,,0.54,0.0,WeatherDisplay:10.37,2013-02-26 05:15:00,
2013-02-25 23:20:00,38.1,36.0,29.41,NE,56,0.0,0.0,92,0.00,OVC,,0.54,0.0,WeatherDisplay:10.37,2013-02-26 05:20:00,
2013-02-25 23:25:00,38.2,36.4,29.41,NE,56,0.0,0.0,93,0.00,OVC,,0.54,0.0,WeatherDisplay:10.37,2013-02-26 05:25:00,
2013-02-25 23:30:00,38.4,36.6,29.41,NE,56,0.0,0.0,93,0.00,OVC,,0.54,0.0,WeatherDisplay:10.37,2013-02-26 05:30:00,
2013-02-25 23:35:00,38.5,36.7,29.41,NE,56,0.0,0.0,93,0.00,OVC,,0.54,0.0,WeatherDisplay:10.37,2013-02-26 05:35:00,
2013-02-25 23:40:00,38.7,36.9,29.41,NE,56,0.0,0.0,93,0.00,OVC,,0.54,0.0,WeatherDisplay:10.37,2013-02-26 05:40:00,
2013-02-25 23:45:00,39.0,37.1,29.41,NE,56,0.0,0.0,93,0.00,OVC,,0.54,0.0,WeatherDisplay:10.37,2013-02-26 05:45:00,
2013-02-25 23:50:00,39.0,37.1,29.41,NE,56,0.0,0.0,93,0.00,OVC,,0.54,0.0,WeatherDisplay:10.37,2013-02-26 05:50:00,
2013-02-25 23:55:00,38.9,37.0,29.40,NE,56,0.0,0.0,93,0.00,OVC,,0.54,0.0,WeatherDisplay:10.37,2013-02-26 05:55:00,